Auburn, KS

6:02 PM CST on February 07, 2016 (GMT -0600)
South Pointe Bay Estates | | Change Station
CLOSE
Current Station
Personal Weather Station
Location: Auburn, KS
Elevation: 1096 ft
Nearby Weather Stations
Active Advisory: Wind Advisory

Elev 1096 ft 38.95 °N, 95.80 °W | Updated 1 minute ago

Overcast
Overcast
46.3 °F
Feels Like 45 °F
N
4.0
Wind Variable Wind from NNW
Gusts 16.0 mph

Today
High -- | Low -- °F
--% Chance of Precip.
Yesterday
High -- | Low -- °F
Precip. -- in
Pressure 30.05 in
Visibility 10.0 miles
Clouds Overcast 9500 ft
Windchill 45 °F
Dew Point 22 °F
Humidity 39%
Rainfall 0.00 in
Snow Depth Not available.
7:24 AM 5:51 PM
Waning Crescent, 1% visible
METAR KFOE 072353Z 31018G34KT 10SM OVC095 08/M08 A3004 RMK AO2 PK WND 28036/2306 SLP176 T00831078 10128 20083 50001
Pressure 30.05 in
Visibility 10.0 miles
Clouds Overcast 9500 ft
Windchill 45 °F
Dew Point 22 °F
Humidity 39%
Rainfall 0.00 in
Snow Depth Not available.
7:24 AM 5:51 PM
Waning Crescent, 1% visible
METAR KFOE 072353Z 31018G34KT 10SM OVC095 08/M08 A3004 RMK AO2 PK WND 28036/2306 SLP176 T00831078 10128 20083 50001

10-Day Weather Forecast

Almanac

Astronomy

Feb. 07, 2016 Rise Set
Actual Time
Civil Twilight
Nautical Twilight
Astronomical Twilight
Moon
Length of Visible Light
Length of Day
Tomorrow will be .
, % of the Moon is Illuminated

Today's Extremes

State Highs State Lows

Community

WunderPhotos

Upload Photos

1,891,334 photos uploaded!

WunderBlog® & News

Nearby

Air Quality

  Air Quality AQ Index Pollutant
Not available.

Snow Depth

Station Depth Elevation

Earthquake Activity

City Distance Mag. Time & Date
Minimum magnitude displayed is 2.5.

Coastal Water Temperatures

Place Temperature

Stations

Nearby Weather Stations

Station Location Temp. Windchill Dew Point Humidity Wind Precip. Elev Updated Type
                   

Watches & Warnings

Wind Advisory
Issued: 3:26 PM CST Feb. 7, 2016 – National Weather Service

... Wind Advisory remains in effect from 8 am to 6 PM CST Monday...

* timing... wind speeds are expected to increase shortly after
sunrise and continue through the late afternoon.

* Winds... northwest winds will be sustained from 25 to 35 mph
with gusts around 45 mph.

* Impacts... loose and lightweight objects may be blown around by
the wind. Motorists should keep both hands on the steering
wheel. Light snow or flurries are also possible... and this
wind would combine with any falling snow to create greatly
reduced and quickly changing visibilities.

Precautionary/preparedness actions...

A Wind Advisory means that sustained winds of 30 mph or gusts to
45 mph are expected. Winds this strong can make driving
difficult... especially for high profile vehicles. Use extra
caution.